Brize Norton, United Kingdom

7:11 PM GMT on December 15, 2017 (GMT +0000)
Brize Norton Air Base

Weather History for EGVN - December, 2013

Change the Weather History Date:

Tuesday, December 17, 2013

  Actual Average Record
Temperature  
Mean Temperature 40 °F -  
Max Temperature 44 °F 44 °F 57 °F (2015)
Min Temperature 35 °F 34 °F 21 °F (2010)
Degree Days  
Heating Degree Days 26    
Moisture  
Dew Point 38 °F    
Average Humidity 93    
Maximum Humidity 100    
Minimum Humidity 76    
Precipitation  
Precipitation 0.04 in - - ()
Sea Level Pressure  
Sea Level Pressure 30.16 in    
Wind  
Wind Speed 2 mph ()    
Max Wind Speed 5 mph    
Max Gust Speed -    
Visibility 5.4 miles    
Events Fog , Rain    
Averages and records for this station are not official NWS values.
T = Trace of Precipitation, MM = Missing Value Source: Averaged Metar Reports

Daily Weather History Graph

Daily Weather History Graph

Search for Another Location

Airport or City:

Trip Planner

Search our weather history database for the weather conditions in past years. The results will help you decide how hot, cold, wet, or windy it might be!

Date:

Astronomy

Dec. 17, 2013 Rise Set
Actual Time 8:08 AM GMT 3:56 PM GMT
Civil Twilight 7:27 AM GMT 4:37 PM GMT
Nautical Twilight 6:44 AM GMT 5:20 PM GMT
Astronomical Twilight 6:03 AM GMT 6:01 PM GMT
Moon 4:31 PM GMT (12/17) 7:46 AM GMT (12/17)
Length of Visible Light 9h 09m
Length of Day
7h 48m
Full, 100% of the Moon is Illuminated
Dec 17
Full
Dec 25
Last Quarter
Jan 1
New
Jan 8
First Quarter
Jan 16
Full

Hourly Weather History & Observations

Time (GMT) Temp. Windchill Dew Point Humidity Pressure Visibility Wind Dir Wind Speed Gust Speed Precip Events Conditions
12:00 AM 41 °F - 38 °F 86% 30.17 in 12 mi NW 4.6 mph - - Rain Light Rain
12:50 AM 41.0 °F 38.0 °F 39.2 °F 93% 30.15 in 6.2 mi NNW 4.6 mph - N/A Rain Light Rain
1:50 AM 41.0 °F 39.0 °F 37.4 °F 87% 30.15 in 6.2 mi NW 3.5 mph - N/A Rain Rain
2:50 AM 41.0 °F - 39.2 °F 93% 30.18 in 6.2 mi Calm Calm - N/A Rain Light Rain
3:00 AM 40 °F - 38 °F 91% 30.20 in 19 mi Calm Calm - - Rain Light Rain
3:50 AM 41.0 °F 39.0 °F 37.4 °F 87% 30.15 in 6.2 mi South 3.5 mph - N/A   Mostly Cloudy
4:00 AM 40 °F - 38 °F 90% 30.18 in 25 mi South 3.5 mph - - Rain Light Rain
4:50 AM 39.2 °F - 37.4 °F 93% 30.18 in - Calm Calm - N/A   Clear
5:50 AM 39.2 °F - 37.4 °F 93% 30.18 in - SSW 1.2 mph - N/A   Clear
6:00 AM 40 °F - 38 °F 88% 30.21 in 31 mi SSW 1.2 mph - -   Partly Cloudy
6:50 AM 39.2 °F - 37.4 °F 93% 30.21 in - SSW 1.2 mph - N/A   Clear
7:00 AM 39 °F - 38 °F 94% 30.23 in 25 mi SSW 1.2 mph - -   Mostly Cloudy
7:50 AM 37.4 °F - 37.4 °F 100% 30.21 in - WSW 1.2 mph - N/A   Clear
8:32 AM 35.6 °F - 35.6 °F 100% 30.24 in 6.2 mi WSW 2.3 mph - N/A Fog Shallow Fog
8:50 AM 35.6 °F - 35.6 °F 100% 30.24 in 6.2 mi WSW 2.3 mph - N/A Fog Shallow Fog
9:00 AM 36 °F - 35 °F 97% 30.28 in 1 mi WSW 2.3 mph - - Fog Patches of Fog
9:16 AM 35.6 °F - 35.6 °F 100% 30.27 in 6.2 mi SSE 1.2 mph - N/A Fog Patches of Fog
9:40 AM 35.6 °F - 35.6 °F 100% 30.24 in 6.2 mi West 2.3 mph - N/A Fog Shallow Fog
9:50 AM 37.4 °F - 35.6 °F 93% 30.24 in 6.2 mi WSW 1.2 mph - N/A Fog Patches of Fog
10:00 AM 37 °F - 36 °F 94% 30.28 in 0 mi WSW 1.2 mph - - Fog Patches of Fog
10:50 AM 39.2 °F - 37.4 °F 93% 30.24 in 0.3 mi SSE 1.2 mph - N/A Fog Fog
11:50 AM 41.0 °F - 41.0 °F 100% 30.21 in 2.5 mi East 2.3 mph - N/A   Haze
12:00 PM 41 °F - 41 °F 98% 30.24 in 2 mi East 2.3 mph - - Fog Light Fog
12:12 PM 42.8 °F 41.1 °F 41.0 °F 93% 30.21 in 6.2 mi SE 3.5 mph - N/A   Haze
12:50 PM 42.8 °F 40.1 °F 39.2 °F 87% 30.18 in 6.2 mi SE 4.6 mph - N/A   Partly Cloudy
1:50 PM 44.6 °F 42.2 °F 39.2 °F 81% 30.15 in 6.2 mi East 4.6 mph - N/A   Partly Cloudy
2:00 PM 44 °F - 39 °F 76% 30.19 in 22 mi East 4.6 mph - -   Scattered Clouds
2:50 PM 42.8 °F 40.1 °F 39.2 °F 87% 30.15 in - East 4.6 mph - N/A   Clear
3:00 PM 43 °F - 38 °F 78% 30.17 in 22 mi East 4.6 mph - -   Scattered Clouds
3:50 PM 41.0 °F - 37.4 °F 87% 30.15 in - South 2.3 mph - N/A   Clear
4:00 PM 41 °F - 38 °F 83% 30.17 in 17 mi South 2.3 mph - -   Partly Cloudy
4:50 PM 39.2 °F - 37.4 °F 93% 30.12 in - ESE 2.3 mph - N/A   Clear
5:00 PM 39 °F - 37 °F 92% 30.15 in 16 mi ESE 2.3 mph - -   Mostly Cloudy
5:50 PM 39.2 °F - 37.4 °F 93% 30.09 in 6.2 mi NE 1.2 mph - N/A   Mostly Cloudy
6:00 PM 39 °F - 38 °F 93% 30.13 in 12 mi NE 1.2 mph - -   Overcast
6:26 PM 39.2 °F - 37.4 °F 93% 30.09 in 2.5 mi East 1.2 mph - N/A   Light Drizzle
6:50 PM 39.2 °F - 39.2 °F 100% 30.09 in 2.2 mi NE 1.2 mph - N/A Rain Light Rain
7:00 PM 40 °F - 38 °F 92% 30.12 in 2 mi NE 1.2 mph - - Rain Light Rain
7:50 PM 39.2 °F 37.0 °F 39.2 °F 100% 30.06 in 1.9 mi NNE 3.5 mph - N/A Rain Light Rain
8:50 PM 39.2 °F 37.0 °F 39.2 °F 100% 30.04 in 1.6 mi NNE 3.5 mph - N/A Rain Light Rain
9:00 PM 40 °F - 39 °F 95% 30.06 in 2 mi NNE 3.5 mph - - Rain Light Rain
9:50 PM 39.2 °F - 39.2 °F 100% 30.01 in 2.2 mi North 2.3 mph - N/A   Overcast
10:00 PM 40 °F - 39 °F 97% 30.04 in 2 mi North 2.3 mph - - Rain Light Rain
10:50 PM 41.0 °F - 39.2 °F 93% 30.01 in - South 1.2 mph - N/A   Overcast
11:00 PM 41.0 °F 39.0 °F 39.2 °F 93% 29.98 in 0.4 mi East 3.5 mph - N/A Fog Fog
11:50 PM 41.0 °F - 39.2 °F 93% 29.98 in 0.4 mi South 1.2 mph - N/A Fog Fog